Location: Piotrkow Trybunalski
(51.4000°N, 19.6830°E)
Time: 12:12:51
(UTC+02:00)

A-11 Canister half - Pass Details

Date: 30 January 2023
Orbit: 1526 x 1682 km, 47.3° (Epoch: 26 March)

Event Time Altitude Azimuth Distance (km) Brightness Sun altitude
Rises 07:19:01 0° 233° (SW) 4,669 11.3 -1.3°
Reaches altitude 10° 07:22:07 10° 229° (SW) 3,692 10.8 -0.9°
Maximum altitude 07:31:02 54° 156° (SSE) 1,833 9.9 0.3°
Drops below altitude 10° 07:40:10 10° 83° (E) 3,779 12.0 1.5°
Sets 07:43:22 0° 79° (E) 4,786 12.4 2.0°
